Overview Statistics Trail Chart Weather Telemetry Raw packets
 

This is the latest recevied weather packets stored in our database for station/object KB2EAR-13. If no packets are shown the sender has not sent any weather packets the latest 10 day(s).

<< 70 71 72 73 74 75 76 >>
Time Temp. Humidity Pressure Rain* Wind** Luminosity Snow
1788147918 21.67° C 95% 1020.2 hPa 1.27 mm - - -
1788147618 21.67° C 95% 1020.1 hPa 1.78 mm - - -
1788147318 21.67° C 95% 1020.2 hPa 3.56 mm - - -
1788147018 22.22° C 95% 1020 hPa 3.56 mm - - -
1788146718 22.22° C 95% 1020 hPa 4.06 mm - - -
1788146418 22.22° C 95% 1020.1 hPa 4.06 mm - - -
1788146118 22.22° C 95% 1020.1 hPa 4.06 mm - - -
1788145818 22.22° C 95% 1019.9 hPa 4.06 mm - - -
1788145518 22.22° C 95% 1019.7 hPa 4.06 mm - - -
1788145218 22.78° C 95% 1019.8 hPa 4.06 mm - - -
1788144918 22.78° C 95% 1019.8 hPa 4.06 mm - - -
1788144618 22.78° C 95% 1019.8 hPa 3.81 mm - - -
1788144318 22.78° C 94% 1020.1 hPa 2.79 mm - - -
1788144018 23.33° C 94% 1020.2 hPa 2.29 mm - - -
1788143718 23.33° C 95% 1020 hPa 0.51 mm - - -
1788143418 23.33° C 95% 1020 hPa 0.76 mm - - -
1788143118 23.33° C 95% 1020 hPa 0.25 mm - - -
1788142818 23.33° C 95% 1019.9 hPa 0.25 mm - - -
1788142518 23.33° C 95% 1019.8 hPa 0.25 mm - - -
1788142218 23.33° C 95% 1019.8 hPa 0.25 mm - - -
1788141918 23.33° C 95% 1019.8 hPa 0.25 mm - - -
1788141618 23.33° C 95% 1019.9 hPa 0.25 mm - - -
1788141318 23.33° C 95% 1020 hPa 0.25 mm - - -
1788141018 23.33° C 95% 1019.9 hPa 0.25 mm - - -
1788140718 23.33° C 95% 1020 hPa 0.25 mm - - -

* Rain latest hour (hover to see other rain measurements)
** Current wind speed in m/s (hover to see current wind gust speed)